YO8KGT-13 Weather Reports


Display with metric or nautical units.
time (UTC)temp
F
wind
direction
speed
MPH
gust
MPH
rain 1hr
in
rain 24hr
in
rain mn
in
humidity
%
barometer
mb
20260906180916 60 338 0.0 1.0 0.00 0.00 0.00 59 954.0
20260906180405 60 338 0.0 1.0 0.00 0.00 0.00 59 954.0
20260906175909 60 338 0.0 2.0 0.00 0.00 0.00 59 954.0
20260906175406 60 338 1.0 2.0 0.00 0.00 0.00 60 954.0
20260906174906 60 0 0.0 2.0 0.00 0.00 0.00 60 954.0
20260906174425 60 0 0.0 2.0 0.00 0.00 0.00 60 954.0
20260906173904 60 0 0.0 2.0 0.00 0.00 0.00 59 954.0
20260906173419 60 0 0.0 2.0 0.00 0.00 0.00 59 954.0
20260906172905 60 0 0.0 2.0 0.00 0.00 0.00 59 954.0
20260906172406 60 0 1.0 2.0 0.00 0.00 0.00 60 953.0
20260906171938 61 0 0.0 2.0 0.00 0.00 0.00 59 953.0
20260906171405 61 0 0.0 0.0 0.00 0.00 0.00 59 953.0
20260906170930 61 0 0.0 2.0 0.00 0.00 0.00 59 953.0
20260906170406 61 0 0.0 2.0 0.00 0.00 0.00 59 953.0
20260906165914 62 0 0.0 2.0 0.00 0.00 0.00 59 953.0
20260906165405 62 0 0.0 2.0 0.00 0.00 0.00 58 953.0
20260906164906 62 0 0.0 2.0 0.00 0.00 0.00 58 953.0
20260906164404 62 0 0.0 2.0 0.00 0.00 0.00 58 952.0
20260906163904 62 0 0.0 2.0 0.00 0.00 0.00 57 953.0
20260906163419 63 0 0.0 4.0 0.00 0.00 0.00 57 952.0
20260906162914 63 0 0.0 4.0 0.00 0.00 0.00 56 952.0
20260906162411 63 0 0.0 4.0 0.00 0.00 0.00 56 952.0
20260906161905 63 0 0.0 4.0 0.00 0.00 0.00 56 952.0
20260906161405 64 0 0.0 4.0 0.00 0.00 0.00 56 952.0
20260906160926 64 0 0.0 3.0 0.00 0.00 0.00 56 952.0
20260906160424 64 0 2.0 3.0 0.00 0.00 0.00 56 952.0
20260906155919 64 0 0.0 4.0 0.00 0.00 0.00 56 952.0
20260906155405 64 0 0.0 4.0 0.00 0.00 0.00 55 952.0
20260906154906 64 0 2.0 4.0 0.00 0.00 0.00 55 952.0
20260906154404 65 0 0.0 4.0 0.00 0.00 0.00 55 952.0
20260906153936 65 0 2.0 4.0 0.00 0.00 0.00 54 951.0
20260906153433 65 0 2.0 4.0 0.00 0.00 0.00 54 951.0
20260906152906 65 0 0.0 0.0 0.00 0.00 0.00 54 951.0
20260906152414 65 22 0.0 3.0 0.00 0.00 0.00 54 951.0
20260906151904 65 22 0.0 3.0 0.00 0.00 0.00 54 951.0
20260906151449 65 22 0.0 3.0 0.00 0.00 0.00 54 951.0
20260906150906 65 45 0.0 2.0 0.00 0.00 0.00 54 951.0
20260906150404 65 22 0.0 2.0 0.00 0.00 0.00 55 951.0
20260906145929 66 22 0.0 2.0 0.00 0.00 0.00 55 951.0
20260906145405 65 22 0.0 2.0 0.00 0.00 0.00 55 951.0
20260906145001 66 22 0.0 2.0 0.00 0.00 0.00 55 951.0
20260906144405 66 22 0.0 8.0 0.00 0.00 0.00 55 951.0
20260906143906 66 22 2.0 8.0 0.00 0.00 0.00 55 951.0
20260906143405 66 22 0.0 8.0 0.00 0.00 0.00 55 951.0
20260906142905 66 22 3.0 5.0 0.00 0.00 0.00 55 951.0
20260906142510 66 0 4.0 5.0 0.00 0.00 0.00 55 951.0
20260906141904 66 22 0.0 2.0 0.00 0.00 0.00 56 950.0
20260906141414 66 22 0.0 2.0 0.00 0.00 0.00 56 950.0
20260906140905 66 22 0.0 4.0 0.00 0.00 0.00 55 950.0
20260906140404 66 22 0.0 4.0 0.00 0.00 0.00 56 950.0
20260906135905 66 22 2.0 4.0 0.00 0.00 0.00 56 950.0
20260906135405 67 315 2.0 4.0 0.00 0.00 0.00 56 950.0
20260906134928 67 338 4.0 6.0 0.00 0.00 0.00 56 951.0
20260906134404 67 315 2.0 6.0 0.00 0.00 0.00 55 951.0
20260906133912 67 0 0.0 6.0 0.00 0.00 0.00 55 950.0
20260906133404 68 0 2.0 5.0 0.00 0.00 0.00 54 950.0
20260906132905 68 338 1.0 7.0 0.00 0.00 0.00 54 950.0
20260906132404 68 0 0.0 7.0 0.00 0.00 0.00 53 950.0
20260906131905 69 338 2.0 7.0 0.00 0.00 0.00 53 950.0
20260906131422 69 22 0.0 4.0 0.00 0.00 0.00 53 950.0
20260906130905 69 0 2.0 3.0 0.00 0.00 0.00 53 950.0
20260906130415 69 22 1.0 3.0 0.00 0.00 0.00 53 950.0
20260906125905 69 338 0.0 2.0 0.00 0.00 0.00 54 950.0
20260906125405 69 338 0.0 2.0 0.00 0.00 0.00 55 950.0
20260906124904 69 338 1.0 2.0 0.00 0.00 0.00 56 950.0
20260906124404 69 338 2.0 2.0 0.00 0.00 0.00 57 950.0
20260906123904 69 338 0.0 1.0 0.00 0.00 0.00 57 950.0
20260906123426 69 338 0.0 3.0 0.00 0.00 0.00 57 950.0
20260906122905 69 22 0.0 3.0 0.00 0.00 0.00 57 950.0
20260906122409 69 22 1.0 5.0 0.00 0.00 0.00 56 950.0
20260906121905 70 338 0.0 5.0 0.00 0.00 0.00 56 950.0
20260906121405 69 22 0.0 5.0 0.00 0.00 0.00 56 950.0
20260906120904 69 45 2.0 6.0 0.00 0.00 0.00 58 950.0
20260906120405 69 22 3.0 6.0 0.00 0.00 0.00 59 950.0
20260906115921 68 0 2.0 6.0 0.00 0.00 0.00 61 950.0
20260906115405 68 22 2.0 3.0 0.00 0.00 0.00 62 950.0
20260906114914 67 0 2.0 3.0 0.00 0.00 0.00 62 950.0
20260906114405 67 338 0.0 0.0 0.00 0.00 0.00 62 950.0
20260906113905 67 338 0.0 0.0 0.00 0.00 0.00 62 950.0
20260906113432 67 338 0.0 0.0 0.00 0.00 0.00 61 950.0
20260906112904 69 338 0.0 5.0 0.00 0.00 0.00 59 950.0
20260906112424 70 338 0.0 5.0 0.00 0.00 0.00 59 950.0
20260906111904 72 338 5.0 5.0 0.00 0.00 0.00 60 950.0
20260906111409 72 22 2.0 4.0 0.00 0.00 0.00 62 950.0
20260906110904 72 0 0.0 2.0 0.00 0.00 0.00 66 950.0
20260906110405 72 0 0.0 0.0 0.00 0.00 0.00 67 950.0
20260906105905 71 315 0.0 0.0 0.00 0.00 0.00 70 950.0
20260906105404 70 315 0.0 0.0 0.00 0.00 0.00 71 950.0
20260906104920 70 338 0.0 0.0 0.00 0.00 0.00 72 950.0
20260906104405 69 338 0.0 0.0 0.00 0.00 0.00 73 950.0
20260906103912 68 338 0.0 0.0 0.00 0.00 0.00 74 950.0
20260906103404 67 338 0.0 0.0 0.00 0.00 0.00 77 950.0
20260906102905 66 338 0.0 0.0 0.00 0.00 0.00 77 950.0
20260906102430 65 338 0.0 0.0 0.00 0.00 0.00 78 950.0
20260906101905 63 338 0.0 0.0 0.00 0.00 0.00 78 950.0
20260906101424 61 338 0.0 0.0 0.00 0.00 0.00 78 950.0
20260906100905 61 338 0.0 0.0 0.00 0.00 0.00 78 950.0
20260906100406 61 0 0.0 0.0 0.00 0.00 0.00 78 950.0
20260906095904 61 0 0.0 0.0 0.00 0.00 0.00 78 950.0
20260906095404 60 0 0.0 0.0 0.00 0.00 0.00 78 950.0
20260906094905 60 0 0.0 0.0 0.00 0.00 0.00 77 950.0
20260906094405 59 0 0.0 0.0 0.00 0.00 0.00 77 950.0
20260906093916 59 0 0.0 0.0 0.00 0.00 0.00 76 950.0
20260906093403 58 0 0.0 0.0 0.00 0.00 0.00 76 950.0
20260906092905 58 0 0.0 0.0 0.00 0.00 0.00 75 950.0
20260906092403 59 0 0.0 0.0 0.00 0.00 0.00 75 950.0
20260906091905 59 0 0.0 2.0 0.00 0.00 0.00 74 950.0
20260906091427 60 0 0.0 3.0 0.00 0.00 0.00 73 950.0
20260906090904 61 0 2.0 3.0 0.00 0.00 0.00 72 950.0
20260906090412 62 0 0.0 3.0 0.00 0.00 0.00 71 950.0
20260906085905 62 22 3.0 5.0 0.00 0.00 0.00 71 950.0
20260906085404 63 338 0.0 5.0 0.00 0.00 0.00 72 950.0
20260906084904 63 315 0.0 5.0 0.00 0.00 0.00 72 950.0
20260906084405 63 22 0.0 6.0 0.00 0.00 0.00 72 950.0
20260906083921 63 0 2.0 6.0 0.00 0.00 0.00 73 950.0
20260906083406 63 22 0.0 6.0 0.00 0.00 0.00 73 950.0
20260906082916 63 22 2.0 2.0 0.00 0.00 0.00 74 950.0
20260906082406 62 22 0.0 1.0 0.00 0.00 0.00 74 950.0
20260906081905 62 22 0.0 1.0 0.00 0.00 0.00 74 950.0
20260906081431 62 22 0.0 0.0 0.00 0.00 0.00 74 950.0
20260906080906 61 22 0.0 0.0 0.00 0.00 0.00 73 950.0
20260906080424 61 22 0.0 0.0 0.00 0.00 0.00 72 950.0
20260906075906 62 22 0.0 0.0 0.00 0.00 0.00 71 950.0
20260906075407 63 22 0.0 4.0 0.00 0.00 0.00 70 950.0
20260906074906 64 22 0.0 4.0 0.00 0.00 0.00 70 950.0
20260906074406 64 22 0.0 4.0 0.00 0.00 0.00 70 950.0
20260906073905 64 0 0.0 3.0 0.00 0.00 0.00 70 950.0
20260906073406 64 0 0.0 3.0 0.00 0.00 0.00 71 950.0
20260906072919 64 0 3.0 3.0 0.00 0.00 0.00 72 950.0
20260906072417 64 0 0.0 0.0 0.00 0.00 0.00 72 950.0
20260906071914 65 0 0.0 0.0 0.00 0.00 0.00 72 950.0
20260906071407 65 0 0.0 0.0 0.00 0.00 0.00 73 950.0
20260906070906 65 0 0.0 2.0 0.00 0.00 0.00 74 950.0
20260906070431 65 0 0.0 2.0 0.00 0.00 0.00 75 950.0
20260906065930 65 0 2.0 2.0 0.00 0.00 0.00 76 950.0
20260906065424 65 0 0.0 0.0 0.00 0.00 0.00 77 950.0
20260906064906 64 0 0.0 0.0 0.00 0.00 0.00 77 949.0
20260906064409 64 0 0.0 0.0 0.00 0.00 0.00 78 949.0
20260906063907 64 0 0.0 0.0 0.00 0.00 0.00 79 949.0
20260906063442 63 0 0.0 0.0 0.00 0.00 0.00 80 949.0
20260906062907 63 0 0.0 0.0 0.00 0.00 0.00 80 949.0
20260906062407 63 0 0.0 0.0 0.00 0.00 0.00 81 949.0
20260906061921 62 0 0.0 0.0 0.00 0.00 0.00 82 949.0
20260906061407 62 0 0.0 0.0 0.00 0.00 0.00 82 949.0
20260906060952 62 0 0.0 0.0 0.00 0.00 0.00 83 949.0
20260906060407 61 0 0.0 0.0 0.00 0.00 0.00 84 949.0
20260906055908 61 0 0.0 0.0 0.00 0.00 0.00 84 949.0
20260906055432 61 0 0.0 0.0 0.00 0.00 0.00 84 949.0
20260906054906 60 0 0.0 0.0 0.00 9.83 0.00 85 949.0
20260906054505 60 0 0.0 0.0 0.00 0.00 0.00 85 949.0
20260906053908 59 0 0.0 0.0 0.00 0.00 0.00 85 949.0
20260906053410 59 0 0.0 0.0 0.00 0.00 0.00 85 949.0
20260906052908 58 0 0.0 0.0 0.00 0.00 0.00 86 949.0
20260906052408 58 0 0.0 0.0 0.00 0.00 0.00 86 949.0
20260906051907 58 0 0.0 0.0 0.00 0.00 0.00 86 949.0
20260906051408 58 0 0.0 0.0 0.00 0.00 0.00 86 949.0
20260906050920 58 0 0.0 0.0 0.00 0.00 0.00 86 949.0
20260906050409 58 0 0.0 0.0 0.00 0.00 0.00 86 949.0
20260906045907 58 0 0.0 0.0 0.00 0.00 0.00 86 949.0
20260906045409 57 0 0.0 0.0 0.00 0.00 0.00 87 949.0
20260906044908 57 0 0.0 0.0 0.00 0.00 0.00 87 949.0
20260906044430 56 0 0.0 0.0 0.00 0.00 0.00 87 949.0
20260906043908 56 0 0.0 0.0 0.00 0.00 0.00 87 949.0
20260906043414 56 0 0.0 0.0 0.00 0.00 0.00 87 949.0
20260906042909 56 0 0.0 0.0 0.00 0.00 0.00 87 949.0
20260906042409 56 0 0.0 0.0 0.00 0.00 0.00 87 949.0
20260906041909 56 0 0.0 0.0 0.00 0.00 0.00 87 949.0
20260906041410 55 0 0.0 0.0 0.00 0.00 0.00 87 949.0
20260906040926 55 0 0.0 0.0 0.00 0.00 0.00 87 949.0
20260906040408 55 0 0.0 0.0 0.00 0.00 0.00 87 949.0
20260906035919 55 0 0.0 0.0 0.00 0.00 0.00 87 949.0
20260906035408 55 0 0.0 0.0 0.00 0.00 0.00 87 949.0
20260906034909 54 0 0.0 0.0 0.00 0.00 0.00 87 949.0
20260906034436 54 0 0.0 0.0 0.00 0.00 0.00 87 949.0
20260906033909 54 0 0.0 0.0 0.00 0.00 0.00 87 948.0
20260906033430 54 0 0.0 0.0 0.00 0.00 0.00 87 948.0
20260906032909 54 0 0.0 0.0 0.00 0.00 0.00 87 948.0
20260906032413 54 0 0.0 0.0 0.00 0.00 0.00 87 949.0
20260906031909 54 0 0.0 1.0 0.00 0.00 0.00 87 948.0
20260906031410 53 0 0.0 1.0 0.00 0.00 0.00 87 949.0
20260906030909 54 0 0.0 1.0 0.00 0.00 0.00 87 949.0
20260906030409 54 0 0.0 0.0 0.00 0.00 0.00 87 948.0
20260906025927 54 0 0.0 0.0 0.00 0.00 0.00 87 948.0
20260906025411 54 0 0.0 0.0 0.00 0.00 0.00 87 948.0
20260906024922 54 0 0.0 0.0 0.00 0.00 0.00 87 948.0
20260906024411 54 0 0.0 0.0 0.00 0.00 0.00 86 948.0
20260906023911 54 0 0.0 0.0 0.00 0.00 0.00 86 948.0
20260906023410 54 0 0.0 0.0 0.00 0.00 0.00 86 948.0
20260906022910 54 0 0.0 0.0 0.00 0.00 0.00 86 948.0
20260906022431 54 0 0.0 0.0 0.00 0.00 0.00 86 948.0
20260906021910 54 0 0.0 0.0 0.00 0.00 0.00 86 948.0
20260906021415 54 0 0.0 0.0 0.00 0.00 0.00 86 948.0
20260906020911 54 0 0.0 0.0 0.00 0.00 0.00 86 948.0
20260906020411 54 0 0.0 0.0 0.00 0.00 0.00 86 948.0
20260906015911 54 0 0.0 0.0 0.00 0.00 0.00 86 948.0
20260906015411 54 0 0.0 0.0 0.00 0.00 0.00 86 948.0
20260906014927 54 0 0.0 0.0 0.00 0.00 0.00 85 948.0
20260906014412 54 0 0.0 0.0 0.00 0.00 0.00 85 948.0
20260906013912 54 0 0.0 0.0 0.00 0.00 0.00 85 948.0
20260906013411 54 0 0.0 0.0 0.00 0.00 0.00 85 948.0
20260906012911 54 0 0.0 0.0 0.00 0.00 0.00 85 948.0
20260906012439 55 0 0.0 0.0 0.00 0.00 0.00 85 948.0
20260906011912 55 0 0.0 0.0 0.00 0.00 0.00 85 948.0
20260906011423 55 0 0.0 0.0 0.00 0.00 0.00 85 948.0
20260906010911 55 0 0.0 0.0 0.00 0.00 0.00 85 948.0
20260906010419 55 0 0.0 0.0 0.00 0.00 0.00 85 948.0
20260906005912 55 0 0.0 0.0 0.00 0.00 0.00 85 948.0
20260906005411 55 0 0.0 0.0 0.00 0.00 0.00 85 947.0
20260906004936 55 0 0.0 0.0 0.00 0.00 0.00 85 948.0
20260906004412 55 0 0.0 0.0 0.00 0.00 0.00 85 948.0
20260906003930 55 0 0.0 0.0 0.00 0.00 0.00 85 948.0
20260906003413 55 0 0.0 0.0 0.00 0.00 0.00 85 948.0
20260906002915 55 0 0.0 0.0 0.00 0.00 0.00 85 948.0
20260906002413 55 0 0.0 0.0 0.00 0.00 0.00 85 948.0
20260906001913 55 0 0.0 0.0 0.00 0.00 0.00 85 948.0
20260906001412 55 0 0.0 0.0 0.00 0.00 0.00 85 948.0
20260906000912 55 0 0.0 0.0 0.00 0.00 0.00 85 948.0
20260906000426 55 0 0.0 0.0 0.00 0.00 0.00 85 948.0
20260905235913 56 0 0.0 0.0 0.00 0.00 0.00 85 948.0
20260905235419 56 0 0.0 0.0 0.00 0.00 0.00 85 948.0
20260905234913 56 0 0.0 0.0 0.00 0.00 0.00 85 948.0
20260905234412 56 0 0.0 0.0 0.00 0.00 0.00 84 948.0
20260905233936 56 0 0.0 0.0 0.00 0.00 0.00 84 948.0
20260905233414 56 0 0.0 0.0 0.00 0.00 0.00 84 948.0
20260905232932 56 0 0.0 0.0 0.00 0.00 0.00 84 948.0
20260905232414 56 0 0.0 0.0 0.00 0.00 0.00 84 948.0
20260905231916 56 0 0.0 0.0 0.00 0.00 0.00 84 948.0
20260905231414 56 0 0.0 0.0 0.00 0.00 0.00 84 948.0
20260905230913 56 0 0.0 0.0 0.00 0.00 0.00 84 948.0
20260905230413 56 0 0.0 0.0 0.00 0.00 0.00 84 948.0
20260905225913 57 0 0.0 0.0 0.00 0.00 0.00 84 948.0
20260905225428 57 0 0.0 0.0 0.00 0.00 0.00 84 948.0
20260905224912 57 0 0.0 0.0 0.00 0.00 0.00 84 948.0
20260905224413 57 0 0.0 0.0 0.00 0.00 0.00 84 948.0
20260905223914 57 0 0.0 0.0 0.00 0.00 0.00 84 948.0
20260905223413 57 0 0.0 0.0 0.00 0.00 0.00 84 948.0
20260905222937 57 0 0.0 0.0 0.00 0.00 0.00 84 948.0
20260905222414 57 0 0.0 0.0 0.00 0.00 0.00 84 948.0
20260905221921 57 0 0.0 0.0 0.00 0.00 0.00 84 948.0
20260905221413 57 0 0.0 0.0 0.00 0.00 0.00 84 948.0
20260905220914 57 0 0.0 0.0 0.00 0.00 0.00 84 948.0
20260905220413 57 0 0.0 0.0 0.00 0.00 0.00 84 948.0
20260905215914 57 0 0.0 0.0 0.00 0.00 0.00 84 948.0
20260905215432 57 0 0.0 0.0 0.00 0.00 0.00 83 948.0
20260905214915 57 0 0.0 0.0 0.00 0.00 0.00 83 948.0
20260905214426 58 0 0.0 0.0 0.00 0.00 0.00 83 948.0
20260905213915 58 0 0.0 0.0 0.00 0.00 0.00 83 948.0
20260905213415 58 0 0.0 0.0 0.00 0.00 0.00 83 948.0
20260905212944 58 0 0.0 0.0 0.00 0.00 0.00 83 948.0
20260905212415 58 0 0.0 0.0 0.00 0.00 0.00 83 948.0
20260905211936 58 0 0.0 0.0 0.00 0.00 0.00 83 948.0
20260905211415 58 0 0.0 0.0 0.00 0.00 0.00 83 948.0
20260905210921 58 0 0.0 0.0 0.00 0.00 0.00 83 948.0
20260905210418 59 0 0.0 0.0 0.00 0.00 0.00 83 948.0
20260905205915 59 0 0.0 0.0 0.00 0.00 0.00 83 948.0
20260905205415 59 0 0.0 0.0 0.00 0.00 0.00 83 948.0
20260905204916 59 0 0.0 0.0 0.00 0.00 0.00 83 948.0
20260905204433 59 0 0.0 2.0 0.00 0.00 0.00 83 948.0
20260905203932 59 0 0.0 2.0 0.00 0.00 0.00 83 948.0
20260905203428 59 0 0.0 2.0 0.00 0.00 0.00 83 948.0
20260905202916 59 0 0.0 0.0 0.00 0.00 0.00 83 948.0
20260905202415 59 0 0.0 0.0 0.00 0.00 0.00 83 948.0
20260905201916 59 0 0.0 0.0 0.00 0.00 0.00 83 948.0
20260905201444 59 0 0.0 0.0 0.00 0.00 0.00 83 947.0
20260905200939 59 0 0.0 0.0 0.00 0.00 0.00 83 947.0
20260905200416 59 0 0.0 0.0 0.00 0.00 0.00 83 947.0
20260905195923 59 0 0.0 0.0 0.00 0.00 0.00 83 947.0
20260905195417 59 0 0.0 0.0 0.00 0.00 0.00 83 947.0
20260905194956 59 0 0.0 0.0 0.00 0.00 0.00 82 947.0
20260905194417 59 0 0.0 0.0 0.00 0.00 0.00 82 947.0
20260905193916 59 0 0.0 0.0 0.00 0.00 0.00 82 947.0
20260905193433 60 0 0.0 0.0 0.00 0.00 0.00 82 947.0
20260905192917 60 0 0.0 0.0 0.00 0.00 0.00 82 947.0
20260905192506 60 0 0.0 0.0 0.00 0.00 0.00 82 947.0
20260905191918 60 0 0.0 0.0 0.00 0.00 0.00 82 947.0
20260905191418 60 0 0.0 0.0 0.00 0.00 0.00 82 947.0
20260905190945 60 0 0.0 0.0 0.00 0.00 0.00 82 947.0
20260905190417 60 0 0.0 0.0 0.00 0.00 0.00 82 947.0
20260905190017 60 0 0.0 0.0 0.00 0.00 0.00 82 948.0
20260905185417 60 0 0.0 0.0 0.00 0.00 0.00 82 947.0
20260905184922 60 0 0.0 0.0 0.00 0.00 0.00 82 948.0
20260905184417 60 0 0.0 2.0 0.00 0.00 0.00 82 948.0
20260905183917 60 0 0.0 2.0 0.00 0.00 0.00 81 948.0
20260905183417 59 0 2.0 2.0 0.00 0.00 0.00 81 948.0
20260905182916 59 0 0.0 0.0 0.00 0.00 0.00 81 947.0
20260905182435 60 0 0.0 0.0 0.00 0.00 0.00 81 947.0
20260905181917 60 0 0.0 0.0 0.00 0.00 0.00 80 947.0
20260905181419 60 0 0.0 0.0 0.00 0.00 0.00 80 947.0